Weather History for KVBT - March, 2015

Change the Weather History Date:

Monday, March 9, 2015

  Actual Average (WUND) Record (WUND)
Temperature  
Mean Temperature 47 °F -  
Max Temperature 53 °F - - (-1)
Min Temperature 41 °F - - (-1)
Degree Days  
Heating Degree Days 18    
Moisture  
Dew Point 41 °F    
Average Humidity 79    
Maximum Humidity 93    
Minimum Humidity 62    
Precipitation  
Precipitation 0.36 in - - ()
Sea Level Pressure  
Sea Level Pressure 30.08 in    
Wind  
Wind Speed 3 mph (ESE)    
Max Wind Speed 10 mph    
Max Gust Speed -    
Visibility 10 miles    
Events      
Averages and records for this station are not official NWS values.
T = Trace of Precipitation, MM = Missing Value Source: NWS Daily Summary

Daily Weather History Graph

Daily Weather History Graph

Search for Another Location

Airport or City:

Trip Planner

Search our weather history database for the weather conditions in past years. The results will help you decide how hot, cold, wet, or windy it might be!

Date:

Astronomy

Mar. 09, 2015 Rise Set
Actual Time 7:36 AM CDT 7:18 PM CDT
Civil Twilight 7:10 AM CDT 7:44 PM CDT
Nautical Twilight 6:41 AM CDT 8:14 PM CDT
Astronomical Twilight 6:11 AM CDT 8:44 PM CDT
Moon 11:05 PM CDT (3/9) 9:35 AM CDT (3/9)
Length of Visible Light 12h 33m
Length of Day
11h 42m
Waning Gibbous, 86% of the Moon is Illuminated
Mar 9
Waning Gibbous
Mar 13
Last Quarter
Mar 20
New
Mar 27
First Quarter
Apr 4
Full

Hourly Weather History & Observations

Time (CDT) Temp. Windchill Dew Point Humidity Pressure Visibility Wind Dir Wind Speed Gust Speed Precip Events Conditions
12:15 AM 42.8 °F 40.1 °F 35.6 °F 76% 30.13 in 10.0 mi SSE 4.6 mph - N/A   Partly Cloudy
12:35 AM 42.8 °F 41.1 °F 33.8 °F 70% 30.13 in 10.0 mi SSE 3.5 mph - N/A   Clear
12:55 AM 42.8 °F 41.1 °F 35.6 °F 76% 30.13 in 10.0 mi South 3.5 mph - N/A   Clear
1:15 AM 41.0 °F 39.0 °F 33.8 °F 76% 30.11 in 10.0 mi South 3.5 mph - N/A   Clear
1:35 AM 41.0 °F 39.0 °F 35.6 °F 81% 30.11 in 10.0 mi SSE 3.5 mph - N/A   Clear
1:55 AM 41.0 °F 39.0 °F 35.6 °F 81% 30.11 in 10.0 mi SSE 3.5 mph - N/A   Mostly Cloudy
2:15 AM 41.0 °F 39.0 °F 35.6 °F 81% 30.12 in 10.0 mi South 3.5 mph - N/A   Overcast
2:35 AM 41.0 °F - 35.6 °F 81% 30.12 in 10.0 mi Calm Calm - N/A   Overcast
2:55 AM 42.8 °F - 37.4 °F 81% 30.12 in 10.0 mi Calm Calm - N/A   Overcast
3:15 AM 42.8 °F 41.1 °F 37.4 °F 81% 30.12 in 10.0 mi South 3.5 mph - N/A   Overcast
3:35 AM 42.8 °F - 37.4 °F 81% 30.11 in 10.0 mi Calm Calm - N/A   Overcast
3:55 AM 42.8 °F - 37.4 °F 81% 30.10 in 10.0 mi Calm Calm - N/A   Overcast
4:15 AM 42.8 °F - 37.4 °F 81% 30.10 in 10.0 mi Calm Calm - N/A   Mostly Cloudy
4:35 AM 42.8 °F - 37.4 °F 81% 30.10 in 10.0 mi Calm Calm - N/A   Overcast
4:55 AM 42.8 °F 41.1 °F 37.4 °F 81% 30.10 in 10.0 mi South 3.5 mph - N/A   Overcast
5:15 AM 42.8 °F - 37.4 °F 81% 30.10 in 10.0 mi Calm Calm - N/A   Mostly Cloudy
5:35 AM 42.8 °F - 37.4 °F 81% 30.11 in 10.0 mi Calm Calm - N/A   Overcast
5:55 AM 42.8 °F - 37.4 °F 81% 30.11 in 10.0 mi Calm Calm - N/A   Overcast
6:15 AM 42.8 °F - 37.4 °F 81% 30.11 in 10.0 mi Calm Calm - N/A   Overcast
6:35 AM 42.8 °F - 37.4 °F 81% 30.11 in 10.0 mi Calm Calm - N/A   Overcast
6:55 AM 44.6 °F - 39.2 °F 81% 30.11 in 10.0 mi Calm Calm - N/A   Overcast
7:15 AM 42.8 °F - 37.4 °F 81% 30.12 in 10.0 mi Calm Calm - N/A   Overcast
7:35 AM 44.6 °F - 37.4 °F 76% 30.12 in 10.0 mi Calm Calm - N/A   Overcast
7:55 AM 44.6 °F - 39.2 °F 81% 30.12 in 10.0 mi Calm Calm - N/A   Overcast
8:15 AM 44.6 °F - 39.2 °F 81% 30.13 in 10.0 mi Calm Calm - N/A   Overcast
8:35 AM 44.6 °F - 39.2 °F 81% 30.13 in 10.0 mi Calm Calm - N/A   Overcast
8:55 AM 44.6 °F - 39.2 °F 81% 30.14 in 10.0 mi Calm Calm - N/A   Overcast
9:15 AM 44.6 °F - 39.2 °F 81% 30.14 in 10.0 mi Calm Calm - N/A   Overcast
9:35 AM 46.4 °F 45.2 °F 39.2 °F 76% 30.14 in 10.0 mi SE 3.5 mph - N/A   Overcast
9:55 AM 46.4 °F - 39.2 °F 76% 30.14 in 10.0 mi Calm Calm - N/A   Overcast
10:15 AM 46.4 °F - 41.0 °F 81% 30.14 in 10.0 mi Calm Calm - N/A   Overcast
10:35 AM 48.2 °F - 39.2 °F 71% 30.14 in 10.0 mi East 3.5 mph - N/A   Overcast
10:55 AM 48.2 °F - 39.2 °F 71% 30.14 in 10.0 mi Calm Calm - N/A   Overcast
11:15 AM 48.2 °F - 39.2 °F 71% 30.14 in 10.0 mi Calm Calm - N/A   Overcast
11:35 AM 48.2 °F - 39.2 °F 71% 30.14 in 10.0 mi Calm Calm - N/A   Overcast
11:55 AM 48.2 °F - 39.2 °F 71% 30.14 in 10.0 mi Calm Calm - N/A   Overcast
12:15 PM 48.2 °F - 41.0 °F 76% 30.13 in 10.0 mi Calm Calm - N/A   Overcast
12:55 PM 50.0 °F - 41.0 °F 71% 30.12 in 10.0 mi ESE 3.5 mph - N/A   Overcast
1:15 PM 51.8 °F - 41.0 °F 67% 30.11 in 10.0 mi SE 4.6 mph - N/A   Mostly Cloudy
1:35 PM 51.8 °F - 41.0 °F 67% 30.09 in 10.0 mi ESE 6.9 mph - N/A   Mostly Cloudy
1:55 PM 53.6 °F - 41.0 °F 62% 30.08 in 10.0 mi SE 6.9 mph - N/A   Scattered Clouds
2:15 PM 53.6 °F - 41.0 °F 62% 30.06 in 10.0 mi ESE 5.8 mph - N/A   Partly Cloudy
2:35 PM 53.6 °F - 41.0 °F 62% 30.05 in 10.0 mi ESE 5.8 mph - N/A   Scattered Clouds
2:55 PM 53.6 °F - 41.0 °F 62% 30.04 in 10.0 mi SE 9.2 mph - N/A   Mostly Cloudy
3:15 PM 53.6 °F - 41.0 °F 62% 30.03 in 10.0 mi SE 10.4 mph - N/A   Overcast
3:35 PM 51.8 °F - 42.8 °F 71% 30.03 in 10.0 mi SE 6.9 mph - N/A   Overcast
3:55 PM 51.8 °F - 42.8 °F 71% 30.04 in 10.0 mi SE 4.6 mph - N/A   Overcast
4:15 PM 51.8 °F - 42.8 °F 71% 30.05 in 10.0 mi SSE 3.5 mph - 0.01 in   Overcast
4:35 PM 50.0 °F - 44.6 °F 82% 30.04 in 9.0 mi SE 3.5 mph - 0.01 in   Overcast
4:55 PM 50.0 °F - 44.6 °F 82% 30.04 in 8.0 mi Calm Calm - 0.02 in   Overcast
5:15 PM 50.0 °F - 44.6 °F 82% 30.04 in 10.0 mi Calm Calm - 0.01 in   Overcast
5:35 PM 48.2 °F - 44.6 °F 87% 30.04 in 10.0 mi SE 5.8 mph - 0.02 in   Overcast
5:55 PM 48.2 °F - 44.6 °F 87% 30.03 in 9.0 mi Calm Calm - 0.03 in   Overcast
6:15 PM 48.2 °F - 44.6 °F 87% 30.03 in 8.0 mi ESE 4.6 mph - 0.01 in   Overcast
6:35 PM 48.2 °F - 44.6 °F 87% 30.02 in 9.0 mi East 3.5 mph - 0.02 in   Overcast
6:55 PM 48.2 °F - 44.6 °F 87% 30.03 in 8.0 mi Calm Calm - 0.04 in   Overcast
7:15 PM 48.2 °F - 44.6 °F 87% 30.02 in 9.0 mi East 3.5 mph - 0.01 in   Mostly Cloudy
7:35 PM 48.2 °F - 44.6 °F 87% 30.03 in 9.0 mi East 4.6 mph - 0.02 in   Overcast
7:55 PM 48.2 °F - 44.6 °F 87% 30.02 in 9.0 mi East 4.6 mph - 0.03 in   Overcast
8:15 PM 48.2 °F - 44.6 °F 87% 30.02 in 10.0 mi East 5.8 mph - 0.01 in   Overcast
8:35 PM 48.2 °F - 44.6 °F 87% 30.01 in 10.0 mi East 6.9 mph - 0.02 in   Overcast
8:55 PM 48.2 °F - 44.6 °F 87% 30.00 in 10.0 mi ENE 5.8 mph - 0.03 in   Overcast
9:15 PM 48.2 °F - 44.6 °F 87% 30.01 in 10.0 mi East 5.8 mph - 0.02 in   Overcast
9:35 PM 48.2 °F - 44.6 °F 87% 30.01 in 10.0 mi East 5.8 mph - 0.03 in   Overcast
9:55 PM 48.2 °F - 44.6 °F 87% 30.00 in 9.0 mi East 8.1 mph - 0.06 in   Overcast
10:15 PM 48.2 °F - 44.6 °F 87% 30.00 in 10.0 mi East 6.9 mph - 0.04 in   Overcast
10:35 PM 48.2 °F - 44.6 °F 87% 30.00 in 10.0 mi East 8.1 mph - 0.06 in   Overcast
10:55 PM 48.2 °F - 44.6 °F 87% 30.00 in 10.0 mi East 5.8 mph - 0.09 in   Overcast
11:15 PM 48.2 °F - 44.6 °F 87% 29.99 in 10.0 mi East 5.8 mph - 0.02 in   Overcast
11:35 PM 46.4 °F 42.9 °F 44.6 °F 93% 29.99 in 10.0 mi East 6.9 mph - 0.04 in   Overcast
11:55 PM 46.4 °F 42.4 °F 42.8 °F 87% 29.98 in 10.0 mi East 8.1 mph - 0.06 in   Overcast